#timestamp,LO_Frequency,Hit,StdDev 
1620957615.2,286046998.4,N
1620957635.1,286047000.1,N
1620957636.0,286047000.1,N
1620957655.8,286047001.4,N
1620957675.7,286047000.7,N
1620957695.5,286047000.1,N
1620957715.3,286046998.2,N
1620957735.2,286047001.1,N
1620957755.0,286047000.9,N
1620957755.9,286047000.9,N
1620957775.8,286047000.1,N
1620957795.6,286047004.0,N
1620957815.4,286047001.3,N
1620957835.3,286047002.6,N
1620957855.1,286047004.3,N
1620957875.8,286047005.4,N
1620957895.7,286047005.1,N
1620957915.5,286047005.0,N
1620957935.4,286047003.9,N
1620957955.2,286047002.8,N
1620957975.0,286047002.3,N
1620957975.9,286047002.3,N
1620957995.8,286047002.3,N
1620958015.6,286046998.2,N
1620958035.5,286046998.8,N
1620958055.3,286047000.4,N
1620958075.1,286047000.7,N
1620958095.9,286046998.5,N
1620958115.7,286047001.2,N
1620958135.5,286047000.4,N
1620958155.4,286046998.8,N
1620958175.2,286046997.0,N
1620958195.1,286046999.0,N
1620958196.0,286046999.0,N
1620958215.8,286046998.8,N
1620958235.6,286047000.8,N
1620958255.5,286046998.1,N
1620958275.3,286047000.5,N
1620958295.2,286047000.2,N
1620958315.9,286046999.8,N
1620958335.7,286047002.6,N
1620958355.6,286047001.3,N
1620958375.4,286047001.9,N
1620958395.2,286046999.9,N
1620958415.1,286047000.8,N
1620958416.0,286047000.8,N
1620958435.8,286046999.8,N
1620958455.7,286047001.0,N
1620958475.5,286046999.3,N
1620958495.3,286046999.0,N
1620958515.2,286047000.1,N
1620958535.0,286047001.0,N
1620958535.9,286047001.0,N
1620958555.8,286046998.5,N
1620958575.6,286047002.2,N
1620958595.4,286047001.7,N
1620958615.3,286047001.7,N
1620958635.1,286047002.6,N
1620958655.8,286046999.8,N
1620958675.7,286047002.8,N
1620958695.5,286047003.9,N
1620958715.4,286047003.5,N
1620958735.2,286047005.1,Y
1620958755.1,286047003.4,P
1620958756.0,286047003.4,N
1620958775.8,286047004.1,P
1620958795.6,286047001.8,N
1620958815.5,286047003.0,N
1620958835.3,286047001.8,N
1620958855.1,286047001.7,N
1620958875.9,286047005.9,Y
1620958895.7,286047001.7,P
1620958915.6,286047004.2,P
1620958935.4,286047004.0,P
1620958955.2,286047001.5,N
1620958975.1,286047002.6,N
1620958976.0,286047002.6,N
1620958995.8,286047002.1,N
1620959015.7,286047002.1,N
1620959035.5,286047003.9,Y
1620959055.3,286047000.0,P
1620959075.2,286047000.8,N
1620959095.9,286046998.4,N
1620959115.7,286046998.4,N
1620959135.6,286046997.2,N
1620959155.4,286046997.5,N
1620959175.3,286046996.7,N
1620959195.1,286046996.5,N
1620959196.0,286046996.5,N
1620959215.8,286047000.3,N
1620959235.7,286047000.3,N
1620959255.5,286047001.2,N
1620959275.3,286046998.4,N
1620959295.2,286046997.0,N
1620959315.0,286046994.9,N
1620959315.9,286046994.9,N
1620959335.8,286046997.8,N
1620959355.6,286046997.2,N
1620959375.4,286046997.1,N
1620959395.3,286047000.0,N
1620959415.1,286047001.1,N
1620959435.9,286046998.2,N
1620959455.7,286046999.2,N
1620959475.5,286046998.4,N
1620959495.4,286047002.7,N
1620959515.2,286047000.0,N
1620959535.1,286047002.6,N
1620959536.0,286047002.6,N
1620959555.8,286047004.3,N
1620959575.6,286047003.3,N
1620959595.5,286047000.5,N
1620959615.3,286046999.9,N
1620959635.2,286046999.0,N
1620959655.9,286046997.7,N
1620959675.7,286046996.7,N
1620959695.6,286046998.1,N
1620959715.4,286046999.6,N
1620959735.3,286046999.6,N
1620959755.1,286047000.8,N
1620959756.0,286047000.8,N
1620959775.8,286047001.0,N
1620959795.7,286046998.2,N
1620959815.5,286046998.4,N
1620959835.4,286047000.2,N
1620959855.2,286047002.2,N
1620959875.0,286047000.2,N
1620959875.9,286047000.2,N
1620959895.8,286046999.9,N
1620959915.6,286046999.2,N
1620959935.5,286046997.2,N
1620959955.3,286046998.2,N
1620959975.1,286047000.7,N
1620959995.9,286047000.6,N
1620960015.7,286047001.1,N
1620960035.6,286046997.3,N
1620960055.4,286046995.0,N
1620960075.2,286046999.2,N
1620960095.1,286046999.6,N
1620960096.0,286046999.6,N
1620960115.8,286046998.0,N
1620960135.6,286046996.8,N
1620960155.5,286046996.8,N
1620960175.3,286046996.1,N
1620960195.2,286046992.2,Y
1620960215.9,286046994.3,P
1620960235.7,286046998.0,N
1620960255.6,286046998.2,N
1620960275.4,286047001.0,N
1620960295.2,286046997.1,N
1620960315.1,286046996.0,N
1620960316.0,286046996.0,N
1620960335.8,286046994.7,N
1620960355.7,286046992.1,Y
1620960375.5,286046995.0,P
1620960395.4,286046999.3,N
1620960415.2,286046998.8,N
1620960435.0,286046999.3,N
1620960435.9,286046999.3,N
1620960455.8,286047000.1,N
1620960475.6,286047001.1,N
1620960495.4,286046999.2,N
1620960515.3,286046999.9,N
1620960535.1,286047001.3,N
1620960555.9,286047004.4,N
1620960575.7,286047003.9,N
1620960595.5,286047002.9,N
1620960615.4,286047004.1,N
1620960635.2,286047001.6,N
1620960655.0,286047004.4,N
1620960655.9,286047004.4,N
1620960675.8,286046999.8,N
1620960695.6,286046998.6,N
1620960715.5,286046996.8,N
1620960735.3,286046997.6,N
1620960755.1,286046998.1,N
1620960775.9,286046998.2,N
1620960795.7,286046998.6,N
1620960815.5,286047001.2,N
1620960835.4,286047000.2,N
1620960855.2,286047001.1,N
1620960875.1,286047000.7,N
1620960876.0,286047000.7,N
1620960895.8,286046998.4,N
1620960915.6,286046998.9,N
1620960935.5,286046998.4,N
1620960955.3,286047000.3,N
1620960975.1,286047000.5,N
1620960995.9,286047000.1,N
1620961015.7,286046998.5,N
1620961035.6,286047000.3,N
1620961055.4,286046998.8,N
1620961075.2,286046998.6,N
1620961095.1,286047001.8,N
1620961096.0,286047001.8,N
1620961115.8,286047002.8,N
1620961135.6,286046998.1,N
1620961155.5,286047001.0,N
1620961175.3,286047001.7,N
1620961195.1,286047004.2,N
